www.pogodaiklimat.ru

Погода и климат >> Архив погоды >> Россия >> Якутия >> Тяня


ПОГОДА в Тяне

  • Прогноз погоды в Тяне
  • Монитор погоды в Тяне

АРХИВ ПОГОДЫ в Тяне

Время (UTC), дата Ветер
(напр.,м/с)
 
Видим.   Явления Облачность Т
(С)
Тd
(С)
f
(%)
Тe
(С)
Тes
(С)
Комфортность P
(гПа)
Po
(гПа)
Тmin
(С)
Tmax
(С)
R
(мм)
R24
(мм)
S
(см)
18 18.06 штиль 0 50 км ясно +7.2 +6.3 94 +6 +6 1008.2 984.1
21 18.06 штиль 0 50 км ясно +10.0 +8.4 90 +9 +11 1009.8 986.0
00 19.06 штиль 0 50 км 8/0
[Ci sp]
+20.5 +13.8 65 +23 +31 комфорт 1008.6 985.7 +4.9
03 19.06 В 2 50 км 8/4 600 м
[Cu med, cong Ci sp]
+26.3 +16.3 54 +30 +37 душно 1007.9 985.5
06 19.06 С 3 50 км 9/6
[Cb cap Ci sp]
+28.1 +16.0 48 +31 +35 душно 1006.7 984.4
09 19.06 С 2 50 км в посл. час гроза {ливн. осадки} 8/4 600 м
[Cb cap Ci sp]
+26.5 +16.7 55 +30 +33 душно 1006.4 984.0
12 19.06 С 3 50 км в посл. час гроза 8/3 600 м
[Cb cap Ac cuf Ci fib]
+25.2 +14.9 53 +28 +28 жарко 1008.4 985.6 +28.5 0.0
15 19.06 С 1 50 км 3/0
[Ac cuf Ci fib]
+18.1 +11.5 65 +19 +19 1009.7 986.6
18 19.06 Ю 1 50 км 3/0
[Ac trans Ci sp]
+12.1 +9.8 86 +12 +12 1011.4 987.6
21 19.06 ЮВ 1 50 км 10/0
[Ci sp]
+11.8 +10.6 92 +12 +13 1012.0 988.2
00 20.06 ЮЗ 1 50 км 6/3 600 м
[Sc Ci sp]
+21.6 +15.6 69 +25 +31 комфорт 1011.3 988.4 +8.1
03 20.06 СЗ 1 50 км 8/8 600 м
[Cu med, cong]
+23.8 +14.0 54 +26 +29 жарко 1009.9 987.3
06 20.06 С 2 50 км 8/5 600 м
[Cu med, cong Ci fib]
+26.9 +14.0 45 +29 +35 жарко 1008.3 985.9
09 20.06 СЗ 3 50 км гроза без осадков {ливн. осадки} 8/6 600 м
[Cb cap Ci fib]
+26.7 +13.3 44 +29 +30 жарко 1007.9 985.5
12 20.06 штиль 0 50 км гроза без осадков {ливн. осадки} 9/8 600 м
[Cb cap Ci sp]
+18.0 +16.3 90 +18 +18 1011.5 988.4 +27.6 11
15 20.06 штиль 0 50 км местами туман поземный {гроза} 10/8 600 м
[Sc As trans]
+14.0 +13.3 96 +14 +14 1012.9 989.4
18 20.06 штиль 0 50 км местами туман поземный {гроза} 10/10 600 м
[Sc]
+12.8 +12.4 97 +12 +12 1013.6 989.9
21 20.06 штиль 0 50 км туман 8/8 600 м
[Sc]
+12.6 +12.4 99 +12 +12 1014.5 990.8
00 21.06 В 1 50 км {туман} 8/5 600 м
[Cu med, cong Ac cuf]
+21.1 +17.5 80 +25 +27 комфорт 1013.4 990.5 +12.6
03 21.06 С 1 50 км 8/8 600 м
[Cb cap Ac cuf]
+24.1 +13.9 53 +26 +30 жарко 1012.4 989.7
06 21.06 Ю 1 50 км {ливн. осадки} 8/5 600 м
[Cb cap Ac cuf Ci sp]
+23.8 +15.0 58 +27 +32 жарко 1011.3 988.6
09 21.06 штиль 0 50 км 9/3 600 м
[Cu med, cong As trans Ci sp]
+26.2 +13.5 45 +28 +31 жарко 1009.4 987.0
12 21.06 штиль 0 50 км 6/0
[Ci sp]
+22.8 +15.3 63 +27 +27 душно 1009.9 987.2 +26.9 0.4
15 21.06 штиль 0 50 км 10/0
[As trans Ci sp]
+14.2 +12.9 92 +14 +14 1011.3 987.8
18 21.06 штиль 0 50 км 10/0
[Ac As]
+12.2 +11.3 94 +12 +12 1011.6 987.9
21 21.06 штиль 0 50 км 10/5 600 м
[Cb cap As op]
+12.9 +12.3 96 +12 +12 1011.6 987.9
00 22.06 штиль 0 50 км {ливн. осадки} 10/3 600 м
[Cb cap As op]
+14.8 +14.1 96 +14 +16 1011.6 988.2 +11.1 0.3
03 22.06 З 1 50 км 10/8 600 м
[Sc As op]
+19.7 +13.2 66 +22 +23 комфорт 1010.6 987.5
06 22.06 З 2 50 км 10/8 600 м
[St As op]
+18.2 +14.2 77 +19 +19 1010.2 987.1
09 22.06 С 1 50 км 9/9 600 м
[Sc]
+18.3 +13.8 75 +20 +20 1010.0 986.9
12 22.06 штиль 0 50 км 8/3 600 м
[Cb cap Ac trans]
+18.5 +16.0 85 +19 +19 1009.5 986.5 +20.1
15 22.06 штиль 0 50 км 8/3 600 м
[Cb cap Ac cuf]
+12.2 +11.4 95 +12 +12 1010.1 986.6
18 22.06 З 1 50 км 9/9 600 м
[Cb cap]
+9.5 +9.1 97 +9 +9 1011.2 987.4
21 22.06 С 1 50 км местами туман поземный 8/4 600 м
[St Ac cuf Ci fib]
+10.5 +10.5 100 +10 +10 1011.6 987.8
00 23.06 штиль 0 50 км 8/8 600 м
[Cb cap]
+16.0 +13.1 83 +16 +18 1011.4 988.1 +7.8
03 23.06 СЗ 3 50 км гроза без осадков {ливн. осадки} 8/8 600 м
[Cb cap]
+21.4 +12.0 55 +24 +26 комфорт 1009.7 986.9
06 23.06 СЗ 2 50 км {гроза, ливн. осадки} 4/4 600 м
[Cb cap]
+21.8 +13.7 60 +25 +32 комфорт 1008.6 985.9
09 23.06 С 2 50 км {ливн. осадки} 4/4 600 м
[Cb cap]
+22.0 +12.7 56 +25 +28 комфорт 1008.7 986.0
12 23.06 штиль 0 50 км {ливн. осадки} 3/0
[Ac trans]
+20.0 +12.4 62 +22 +22 комфорт 1009.3 986.4 +22.6 2
15 23.06 штиль 0 50 км 8/8 600 м
[Sc]
+11.6 +10.2 91 +11 +11 1010.5 986.9
18 23.06 штиль 0 50 км 4/3 600 м
[Sc Ac cuf]
+5.6 +4.9 95 +4 +4 1011.3 987.2
21 23.06 штиль 0 500 м туман ?/? +6.8 +6.8 100 +6 +6 1011.4 987.3
00 24.06 штиль 0 50 км {ливн. осадки, туман} 4/3 600 м
[Cb cap Ac cuf]
+12.2 +10.9 92 +12 +18 1010.7 987.2 +3.9 3
03 24.06 З 2 50 км 3/3 600 м
[Cu med, cong Ac cuf]
+20.8 +8.7 46 +23 +33 комфорт 1009.0 986.1
06 24.06 З 2 50 км гроза без осадков 4/3 600 м
[Cb cap Ac cuf]
+22.7 +3.9 29 +23 +31 комфорт 1007.7 985.0
09 24.06 В 3 20 км гроза, ливневой дождь 9/9 600 м
[Cb cap]
+16.3 +9.2 63 +16 +16 1008.1 984.9
12 24.06 штиль 0 50 км {гроза} 9/9 600 м
[Cb cap]
+16.1 +10.2 68 +16 +16 1008.9 985.7 +23.1 3
15 24.06 ЮВ 1 50 км 6/6 600 м
[Sc diur, vesp]
+10.3 +8.9 91 +10 +10 1009.0 985.3
18 24.06 штиль 0 20 км слаб. ливневой дождь 10/10 600 м
[Cb cap]
+9.7 +8.7 93 +9 +9 1009.2 985.4
21 24.06 штиль 0 50 км {ливн. осадки} 10/0
[As op]
+9.7 +8.9 95 +9 +9 1009.2 985.4
00 25.06 штиль 0 50 км {ливн. осадки} 10/0
[As op]
+11.9 +10.4 91 +11 +13 1009.3 985.7 +8.6 0.6
03 25.06 С 1 50 км 6/4 600 м
[Cu med, cong Ac trans]
+18.7 +9.9 57 +20 +28 1008.3 985.2
06 25.06 штиль 0 50 км 8/8 600 м
[Cu med, cong]
+21.2 +10.0 49 +23 +26 комфорт 1007.3 984.5
09 25.06 штиль 0 50 км 6/5 600 м
[Cb cap Ac trans]
+22.0 +10.1 47 +24 +27 комфорт 1007.0 984.2
12 25.06 штиль 0 50 км 1/0
[Ac cuf]
+19.2 +11.2 60 +20 +20 1008.2 985.2 +23.9
15 25.06 Ю 1 50 км ясно +8.6 +6.9 89 +8 +8 1010.2 986.3

 

Местоположение метеостанции Тяня (Якутия, Россия): широта 59.00 долгота 119.80 высота над уровнем моря 199 м.

В архиве по умолчанию представлена погода в Тяне за последнюю неделю. Архивные данные за месяц целиком и за предыдущие месяцы, начиная с января 2011 года, Вы можете получить, выбрав интересующий диапазон дат из раскрывающегося списка и нажав кнопку "Ввод!".


*Определитесь, кто Вы:
робот инопланетянин человек

Внимание! Время в таблицах - всемирное. Для получения местного времени необходимо прибавить поправку, которая равна 9 ч.

Смотрите также архив погоды в соседних городах и на ближайших метеорологических станциях:

Погода в Джикимде (Якутия, Россия) (109 км)
Погода в Олекминске (Якутия, Россия) (159 км)
Погода в Маче (Якутия, Россия) (162 км)
Погода в Перевозе (Иркутская область, Россия) (166 км)
Погода в Килиере (Якутия, Россия) (219 км)
Погода в Суон-Тите (Якутия, Россия) (249 км)
Погода в Чаре (Забайкальский край, Россия) (252 км)
Погода в Удокане (Забайкальский край, Россия) (266 км)
Погода в Усть-Нюкже (Амурская область, Россия) (287 км)
Погода в Большой Лепринде (Забайкальский край, Россия) (292 км)

Пояснения к столбцам:

Ветер - указаны скорость ветра в м/с - средняя за 10 мин, порывы в срок и между сроками (в фигурных скобках) и направление, откуда дует ветер: С - северный, СВ - северо-восточный, В - восточный, ЮВ - юго-восточный, Ю - южный, ЮЗ - юго-западный, З - западный, СЗ - северо-западный.
Видимость - горизонтальная дальность видимости в метрах или километрах. При видимости от 1 до 10 км при отсутствии осадков обычно наблюдается дымка, при ухудшении видимости до 1 км и менее - туман. В сухую погоду видимость может ухудшаться дымом, пылью или мглою.
Явления - указаны атмосферные явления, наблюдавшиеся в срок или в последний час перед сроком; фигурными скобками обозначены явления, наблюдавшиеся между сроками (за 1-3 часа до срока); квадратными скобками обозначены град или гололедные отложения с указанием их диаметра в мм.
Облачность - указаны через наклонную черту общая и нижняя облачность в баллах и высота нижней границы облаков в метрах; квадратными скобками обозначены формы облаков: Ci - перистые, Cs - перисто-слоистые, Cc - перисто-кучевые, Ac - высококучевые, As - высокослоистые, Sc - слоисто-кучевые, Ns - слоисто-дождевые, Cu - кучевые, Cb - кучево-дождевые. Подробнее классификацию облаков см. в Атласе облаков (PDF).
T - Температура воздуха - температура, измеренная на высоте 2 м над землей.
Td - Температура точки росы - температура, при понижении до которой содержащийся в воздухе водяной пар достигнет насыщения.
f - Относительная влажность воздуха - влажноcть воздуха, измеренная на высоте 2 м над землей.
Te - Эффективная температура - температура, которую ощущает одетый по сезону человек в тени. Характеристика душности погоды. При расчете учитывается влияние влажности воздуха и скорости ветра на теплоощущения человека.
Tes - Эффективная температура на солнце - температура, которую ощущает человек, с поправкой на солнечный нагрев. Характеристика знойности погоды. Зависит от высоты солнца над горизонтом, облачности и скорости ветра. Ночью, в пасмурную погоду, а также при ветре 12 м/с и более поправка равна нулю.
P - Атмосферное давление - приведенное к уровню моря атмосферное давление.
Po - Атмосферное давление - измеренное на уровне метеостанции атмосферное давление.
Tmin - Минимальная температура - минимум температуры воздуха на высоте 2 м над землей.
Tmax - Максимальная температура - максимум температуры воздуха на высоте 2 м над землей.
R - Количество осадков - Количество выпавших осадков за период времени, мм. При наведении курсора мыши на число - период времени, за который выпало указанное количество осадков.
R24 - Количество осадков - Количество выпавших осадков за 24 часа, мм.
S - Снежный покров - Высота снежного покрова, см. При наведении курсора мыши на число - состояние снежного покрова и степень покрытия местности в баллах.